Location: Liscomb Game Sanctuary
(45.1633°N, 62.5575°W)
Time: 19:14:49

CZ-4 R/B - Pass Details

Date: 22 February 2018
Orbit: 531 x 601 km, 97.8° (Epoch: 17 March)

Event Time Altitude Azimuth Distance (km) Brightness Sun altitude
Rises 18:30:09 0° 190° (S) 2,771 5.1 -8.2°
Reaches altitude 10° 18:32:30 10° 201° (SSW) 1,866 4.4 -8.6°
Maximum altitude 18:36:04 30° 263° (W) 1,020 3.6 -9.2°
Drops below altitude 10° 18:39:37 10° 326° (NW) 1,843 4.4 -9.8°
Sets 18:41:56 0° 337° (NNW) 2,730 5.1 -10.2°
